Regional Weather Roundup
Issued by NWS

Home | Current Version | Previous Version | Text Only | Print | Product List | Glossary On
Versions: 1 2 3 4 5 6 7 8 9 10 11 12 13 14 15 16 17 18 19 20 21 22 23 24 25 26 27 28 29 30 31 32 33 34 35 36 37 38 39 40 41 42 43 44 45 46 47 48 49 50
000
ASUS43 KFSD 240002
RWRSD

WEATHER ROUNDUP FOR SOUTH DAKOTA
NATIONAL WEATHER SERVICE SIOUX FALLS SD
700 PM CDT WED JUL 23 2014

NOTE: "FAIR" INDICATES FEW OR NO CLOUDS BELOW 12,000 FEET WITH NO
SIGNIFICANT WEATHER AND/OR OBSTRUCTIONS TO VISIBILITY.


SDZ001>005-009-010-012>017-240100-
NORTHWEST AND NORTH CENTRAL SOUTH DAKOTA

CITY           SKY/WX    TMP DP  RH WIND       PRES   REMARKS
BUFFALO          N/A     85  60  42 SE24G30   29.98F
FAITH            N/A     82  60  47 E18G26    30.08F
MOBRIDGE       MOSUNNY   82  57  42 SE18G25   30.11F
$$

SDZ012>016-024>037-041>051-057-063-072>074-240100-
SOUTHWEST AND SOUTH CENTRAL SOUTH DAKOTA

CITY           SKY/WX    TMP DP  RH WIND       PRES   REMARKS
RAPID CTY ARPT SUNNY     84  65  52 SE14      30.09F
PIERRE         MOSUNNY   86  52  30 SE18      30.10F
CUSTER         SUNNY     77  62  59 E10       30.25F
ELLSWORTH AFB  SUNNY     85  64  48 S16       30.09F
PHILIP         SUNNY     90  60  36 SE18G24   30.06F
PINE RIDGE     SUNNY     85  66  53 E16       30.10F
WINNER         FAIR      86  53  32 SE14      30.14F
$$

SDZ004>011-016>023-039-040-240100-
NORTHEAST SOUTH DAKOTA

CITY           SKY/WX    TMP DP  RH WIND       PRES   REMARKS
ABERDEEN       PTSUNNY   78  55  44 E8        30.18F
WATERTOWN      SUNNY     77  54  44 E7        30.20F
SISSETON         N/A     78  58  49 E5        30.18F
$$

SDZ017-020-022-023-036>040-048>070-240100-
SOUTHEAST SOUTH DAKOTA

CITY           SKY/WX    TMP DP  RH WIND       PRES   REMARKS
SIOUX FALLS    MOSUNNY   78  57  48 NE9       30.18F
HURON          MOSUNNY   79  55  43 E8        30.16F
CHAMBERLAIN    SUNNY     83  55  38 SE10      30.14F
MITCHELL       SUNNY     81  58  45 E12       30.16F
YANKTON        SUNNY     79  59  50 E8        30.17S
$$

ABBREVIATIONS USED IN REMARKS
   TC - TEMPERATURE IN CELSIUS
  WCI - WIND CHILL INDEX
   HX - HEAT INDEX
  VSB - VISIBILITY




USA.gov is the U.S. government's official web portal to all federal, state and local government web resources and services.